Regional Weather Roundup
Issued by NWS

Home | Current Version | Previous Version | Graphics & Text | Print | Product List | Glossary Off
Versions: 1 2 3 4 5 6 7 8 9 10 11 12 13 14 15 16 17 18 19 20 21 22 23 24 25 26 27 28 29 30 31 32 33 34 35 36 37 38 39 40 41 42 43 44 45 46 47 48 49 50

000
ASUS45 KPSR 201400
RWRAZ

PRELIMINARY ARIZONA REGIONAL HOURLY WEATHER ROUNDUP
NATIONAL WEATHER SERVICE PHOENIX AZ
700 AM MST MON OCT 20 2014

NOTE: FAIR INDICATES FEW OR NO CLOUDS BELOW 12,000 FEET WITH NO
SIGNIFICANT WEATHER AND/OR OBSTRUCTIONS TO VISIBILITY.

AZZ001>003-036-201500-
NORTHWEST ARIZONA

CITY           SKY/WX    TMP DP  RH WIND       PRES   REMARKS
KINGMAN        CLEAR     60  43  53 SE17      29.99R
$$

AZZ004>008-015-016-018-201500-
NORTH CENTRAL ARIZONA

CITY           SKY/WX    TMP DP  RH WIND       PRES   REMARKS
GRAND CANYON   CLEAR     34  32  92 NE6       30.19R WCI  29
PRESCOTT       CLEAR     45  39  79 S6        30.10S
FLAGSTAFF      CLEAR     34  31  88 CALM      30.20R
PAYSON         CLEAR     52  41  66 CALM      30.12S
$$

AZZ009>014-017-201500-
NORTHEAST ARIZONA

CITY           SKY/WX    TMP DP  RH WIND       PRES   REMARKS
WINSLOW        NOT AVBL
SAINT JOHNS    CLOUDY    41  40  96 CALM      30.15R
WINDOW ROCK    PTCLDY    34  31  88 CALM      30.23R
$$

AZZ023-201500-
GREATER PHOENIX AREA

CITY           SKY/WX    TMP DP  RH WIND       PRES   REMARKS
PHOENIX        CLEAR     67  58  72 E3        29.89S
GLENDALE       CLEAR     63  57  82 CALM      29.91R
DEER VALLEY    CLEAR     63  52  67 CALM      29.91R
SCOTTSDALE     CLEAR     65  52  62 CALM      29.93R
MESA-FALCON    CLEAR     66  48  52 NE7       29.91R
MESA-GATEWAY   CLEAR     61  52  72 CALM      29.93R
CHANDLER       CLEAR     64  52  63 CALM      29.91R
$$

AZZ027-028-201500-
SOUTHWEST MARICOPA COUNTY AND PINAL COUNTY

CITY           SKY/WX    TMP DP  RH WIND       PRES   REMARKS
CASA GRANDE    CLEAR     66  48  52 E8        29.91S
GILA BEND      SUNNY     64  50  59 CALM      29.88
$$

AZZ503-504-507>509-201500-
SOUTHEAST ARIZONA

CITY           SKY/WX    TMP DP  RH WIND       PRES   REMARKS
TUCSON         CLEAR     61  50  67 S9        29.97R
DAVIS-MONTHAN  CLEAR     62  49  62 E8        29.96R
RYAN FIELD       N/A     63  54  72 E9        29.96R
NOGALES        CLEAR     54  46  74 NE3       30.01R
SIERRA VISTA   PTCLDY    52  46  82 CALM      30.06R
SAFFORD        CLEAR     54  50  86 SE7       30.04R
$$

AZZ020-021-025-026-031-201500-
SOUTHWEST ARIZONA

CITY           SKY/WX    TMP DP  RH WIND       PRES   REMARKS
YUMA           CLEAR     75  62  64 NE5       29.82R
$$

CAZ031-033-041-043-047-048-061-201500-
SOUTHERN CALIFORNIA

CITY           SKY/WX    TMP DP  RH WIND       PRES   REMARKS
DOWNTOWN L.A.  CLOUDY    66  60  81 CALM      29.90R
L.A. AIRPORT   CLOUDY    66  62  87 E5        29.90S
SAN DIEGO      MOCLDY    68  61  78 CALM      29.92S
BURBANK        CLOUDY    61  58  90 CALM      29.91S FOG
ONTARIO        PTCLDY    59  57  93 CALM      29.92R FOG
RIVERSIDE      CLOUDY    59  55  87 CALM      29.93R
PALM SPRINGS   CLEAR     66  55  67 CALM      29.84R
EL CENTRO NAS  CLEAR     68  51  54 CALM      29.80R
IMPERIAL       CLEAR     68  55  63 CALM      29.80R
BLYTHE         CLEAR     66  49  54 N5        29.84R
$$

NVZ020-UTZ003-201500-
SOUTHERN NEVADA-UTAH

CITY           SKY/WX    TMP DP  RH WIND       PRES   REMARKS
LAS VEGAS      NOT AVBL
SALT LAKE CITY PTCLDY    52  39  61 E8        30.04S
$$

NMZ009-TXZ055-201500-
NEW MEXICO-WEST TEXAS

CITY           SKY/WX    TMP DP  RH WIND       PRES   REMARKS
ALBUQUERQUE    PTCLDY    49  42  77 CALM      30.20S
EL PASO        PTCLDY    57  54  89 N10       30.08R
$$


........................KEY........................
SKY/WX - SKY CONDITION/WEATHER
TMP    - TEMPERATURE IN FAHRENHEIT
DP     - DEW POINT IN FAHRENHEIT
RH     - RELATIVE HUMIDITY IN PERCENT
WIND   - DIRECTION AND SPEED IN MILES PER HOUR (MPH)
VRB    - VARIABLE WIND DIRECTION
PRES   - MEAN SEA LEVEL PRESSURE IN INCHES OF MERCURY
         F - FALLING PRESSURE   R - RISING PRESSURE
         S - STEADY PRESSURE
VSB    - VISIBILITY IN MILES
HX     - HEAT INDEX IN FAHRENHEIT
WCI    - WIND CHILL INDEX IN FAHRENHEIT
TC     - TEMPERATURE IN CELSIUS WHICH IS ALSO KNOWN AS
         TEMPERATURE IN CENTIGRADE
AFB    - AIR FORCE BASE
         LUKE AFB IS LUKE AIR FORCE BASE
         DAVIS-MONTHAN IS DAVIS-MONTHAN AIR FORCE BASE
NAS    - NAVAL AIR STATION
         EL CENTRO NAS IS EL CENTRO NAVAL AIR STATION
N/A    - NOT AVAILABLE


USA.gov is the U.S. government's official web portal to all federal, state and local government web resources and services.